CZ-6A DEB

Satellite information

Favourite Embed

Satellite Type and Status

DEBRISIN ORBIT

Key statistics

Satellite CZ-6A DEB at a glance.

Uptime

911

Days in orbit

Revolutions

≈ 14.2

Per day

Orbit

SSO

Sun Synchronous Orbit

Inclination

98.7

Latest

Satellite identification and parameters

Extended collection of information and parameters for CZ-6A DEB.

Object identification

Identified? True

Debris? True

Object name: CZ-6A DEB

International designator: 2022-151ZF

Object number (NORAD): 55557

Object ID (CCSDS): 55557

Country: PEOPLES REPUBLIC OF CHINA (PRC)

Current information (Y/N): Y

RCS size: SMALL

Orbital parameters

Period: 101.716 minutes

Inclination: 98.7334 deg

SMA: 7218.059 km

Apoapsis: 887.241 km

Periapsis: 792.608 km

RAAN: 125.3896 deg

Eccentricy: 0.0065553

Argument of periapsis: 66.8946 deg

Mean anomaly: 293.912 deg

Mean motion: 14.15702824 rev/day

Mean motion (dot): 0.00001807 rev/day2

B* drag term: 0.00092367 1/REarth

Two-line elements (TLE)

Creation date: May 9, 2025, 2:46 a.m.

Reference frame: TEME

Reference center: EARTH

Epoch: May 8, 2025, 10:03 a.m. UTC

TLE line 0: 0 CZ-6A DEB

TLE line 1: 1 55557U 22151ZF 25128.41924129 .00001807 00000-0 92367-3 0 9994

TLE line 2: 2 55557 98.7334 125.3896 0065553 66.8946 293.9120 14.15702824127606

Live tracking on map

Real-time ground track for satellite CZ-6A DEB.

In-orbit conjunctions

A list of the most updated potential collisions computed for object CZ-6A DEB.

Target Orbit TCA Probability of collision Miss distance Type
SL-16 DEB LEO 2025-03-09 04:54:39 0.0001134529 153.0 (m) DEBRIS
COSMOS 2369 LEO 2024-11-18 15:12:22 0.0005530341 703.0 (m) PAYLOAD
THORAD AGENA D DEB SSO 2024-06-30 07:57:58 0.0002396207 243.0 (m) DEBRIS

Associated space launch

Chinese satellite reported for atmospheric/ocean/environmental/spatial parameter research purposes, details TBD.

CZ-6A DEB was lifted into orbit during the mission ‘Long March 6A | Yunhai 3’, on board a Long March 6A space rocket.

The launch took place on Nov. 11, 2022, 10:52 p.m. from Launch Complex 9A.

For more information about the launch, click the button.

Launch to space Long March 6A | Yunhai 3
Long March 6A | Yunhai 3

Agency: N/A

Status: Launch Successful

Launch date: Nov. 11, 2022, 10:52 p.m. UTC

Rocket: Long March 6A

Launch pad: Launch Complex 9A

Location: Taiyuan Satellite Launch Center, People's Republic of China

...

Latest news about this satellite

There are no fresh news available about this satellite. Check back as we update our databases every day.


Newsletter sign-up

Weekly statistics, charts and insights to help you stay on top of the space industry.